Location: CAO
(44.5093°N, 80.3921°W)
Time: 21:34:37
(UTC-05:00)

ARIANE 6 FM1 Upper Stage - Pass Details

Date: 23 January 2026
Orbit: 522 x 609 km, 62.0° (Epoch: 7 February)

Event Time Altitude Azimuth Distance (km) Brightness Sun altitude
Rises 18:55:52 0° 217° (SW) 2,713 6.9 -17.3°
Reaches altitude 10° 18:58:05 10° 217° (SW) 1,809 5.9 -17.6°
Maximum altitude 19:02:09 88° 126° (SE) 542 2.5 -18.4°
Enters shadow 19:03:35 39° 41° (NE) 811 3.1 -18.6°
